Regional Weather Roundup
Issued by NWS San Angelo, TX

Home | Current Version | Previous Version | Text Only | Print | Product List | Glossary On
Versions: 1 2 3 4 5 6 7 8 9 10 11 12 13 14 15 16 17 18 19 20 21 22 23 24 25 26 27 28 29 30 31 32 33 34 35 36 37 38 39 40 41 42 43 44 45 46 47 48 49 50
000
ASUS44 KSJT 031115
RWRSJT
WEST CENTRAL TEXAS REGIONAL WEATHER ROUNDUP
NATIONAL WEATHER SERVICE SAN ANGELO TX
600 AM CDT TUE AUG 03 2021

NOTE: "FAIR" INDICATES FEW OR NO CLOUDS BELOW 12,000 FEET WITH NO
SIGNIFICANT WEATHER AND/OR OBSTRUCTIONS TO VISIBILITY.

TXZ049-054-064>066-071>073-076>078-098-099-113-114-127-128-139-140-
154-155-168>170-031200-
...LOCATIONS ACROSS WEST CENTRAL TEXAS...

CITY           SKY/WX    TMP DP  RH WIND       PRES   REMARKS
SAN ANGELO     CLEAR     63  60  90 CALM      30.09S
ABILENE        CLEAR     61  56  83 S3        30.09F
DYESS AFB      CLEAR     62  55  75 CALM      30.08S
JUNCTION       MOCLDY    70  67  90 NW3       30.07R FOG
SWEETWATER     CLEAR     64  53  67 CALM      30.15R
BROWNWOOD      NOT AVBL
COLEMAN        NOT AVBL
SAN SABA       MOSUNNY   67  65  91 W3        30.05S
SONORA         CLEAR     64  64 100 CALM      30.14R
OZONA          FAIR      64  59  82 NW7       30.13S
BRADY            N/A    N/A N/A N/A MISG        N/A
$$

TXZ001-004-007-008-010-012-014-016-OKZ002-031200-
TEXAS PANHANDLE/OKLAHOMA PANHANDLE

CITY           SKY/WX    TMP DP  RH WIND       PRES   REMARKS
AMARILLO       PTCLDY    57  32  38 SW9       30.18S
BORGER         PTCLDY    62  53  72 CALM      30.17S
CANADIAN       CLEAR     55  53  95 SW3       30.14S
DALHART        PTCLDY    58  54  86 S5        30.21F
DUMAS          MOSUNNY   59  49  69 SW7       30.20S
GUYMON         NOT AVBL
HEREFORD       MOSUNNY   55  51  89 SW3       30.23R
PAMPA          MOSUNNY   60  55  84 SW8       30.18F
PERRYTON       CLEAR     58  52  81 SW5       30.14F
$$

TXZ035-026-045-048-031200-
SOUTHERN PANHANDLE/SOUTH PLAINS/ROLLING PLAINS

CITY           SKY/WX    TMP DP  RH WIND       PRES   REMARKS
LUBBOCK        CLEAR     60  52  74 CALM      30.18S
SNYDER         CLEAR     63  55  77 N5        30.14
CHILDRESS      CLEAR     62  56  80 NW3       30.13S
SEMINOLE       SUNNY     62  59  88 CALM      30.22S
$$

TXZ060>062-031200-
PERMIAN BASIN

CITY           SKY/WX    TMP DP  RH WIND       PRES   REMARKS
MIDLAND        CLEAR     64  59  83 CALM      30.14S
ODESSA         CLEAR     64  56  75 CALM      30.15S
WINK           CLEAR     66  61  84 NE7       30.13R
$$

TXZ075-082-271-274-277-419-031200-
FAR WEST/SOUTHWEST MOUNTAINS/TRANS PECOS

CITY           SKY/WX    TMP DP  RH WIND       PRES   REMARKS
ALPINE         SUNNY     63  61  95 CALM      30.27F
DRYDEN           N/A     74  68  81 N6        30.10S
EL PASO        CLOUDY    72  60  66 E5        30.17S
FORT STOCKTON  CLEAR     68  66  93 S5        30.14S
GUADALUPE PASS CLEAR     61  56  83 NE14      30.28F
MARFA          CLEAR     61  59  93 N7        30.25S
PECOS          SUNNY     69  68  96 CALM      30.13S
$$

TXZ118-119-031200-
DALLAS/FORT WORTH METROPLEX

CITY           SKY/WX    TMP DP  RH WIND       PRES   REMARKS
DFW AIRPORT    PTCLDY    75  71  87 N5        29.99S
FTW MEACHAM    PTCLDY    70  66  87 N6        30.00F
DAL-EXECUTIVE  CLEAR     72  70  93 N3        30.00S
GRAND PRAIRIE  CLEAR     74  74 100 N3        30.02S
ADDISON        CLEAR     75  72  88 NE3       30.01F
MESQUITE       SUNNY     71  71 100 CALM      30.00S
LANCASTER      SUNNY     70  69  97 CALM      30.01S FOG
$$

TXZ092-093-103-131-134-031200-
NORTH CENTRAL TEXAS

CITY           SKY/WX    TMP DP  RH WIND       PRES   REMARKS
SHRMAN/DENISON MOSUNNY   70  68  94 CALM      30.04S
GAINESVILLE    PTCLDY    67  64  87 N5        30.05S
BRIDGEPORT     FOG       66  65  96 CALM      30.05S VSB 3/4
DENTON         CLEAR     67  65  93 N3        30.02S
WAXAHACHIE     SUNNY     71  71 100 CALM      30.01S FOG
GRANBURY       SUNNY     69  64  85 W6        30.03S
$$

TXZ085-086-115-141-031200-
WESTERN NORTH TEXAS

CITY           SKY/WX    TMP DP  RH WIND       PRES   REMARKS
WICHITA FALLS  CLEAR     64  61  90 N7        30.06R
VERNON         NOT AVBL
BRECKENRIDGE   SUNNY     63  57  81 CALM      30.06S HAZE
COMANCHE       CLEAR     67  60  78 NW7       30.05F
$$

TXZ145-158-159-173-191-192-194-205-207-220-223-031200-
CENTRAL AND SOUTH CENTRAL TEXAS

CITY           SKY/WX    TMP DP  RH WIND       PRES   REMARKS
AUSTIN/BERGSTM CLOUDY    74  74 100 CALM      29.97S
WACO           CLOUDY    75  73  93 N6        29.99R
HILLSBORO      CLOUDY    74  74 100 CALM      29.99F
TEMPLE         CLOUDY    74  74 100 N7        30.00S
KILLEEN-GRAY   PTCLDY    71  68  90 NW5       29.99S
FORT HOOD      MOCLDY    72  69  90 N7        30.00S
GEORGETOWN     PTCLDY    74  72  93 N7        30.01S
LAGO VISTA     CLOUDY    73  71  91 N3        30.02R
SAN MARCOS     CLOUDY    74  74 100 NW3       29.99R
NEW BRAUNFELS  PTCLDY    75  73  93 N6        29.96S
RANDOLPH AFB   MOCLDY    74  73  98 NW5       29.96S
SAN ANTONIO    MOCLDY    75  72  90 W3        29.99S
STINSON        PTCLDY    78  75  90 CALM      29.96S
PLEASANTON     NOT AVBL
LA GRANGE      MOCLDY    77  77 100 CALM      29.93S
GIDDINGS       PTSUNNY   76  74  96 CALM      29.97S
$$

TXZ095-096-136-137-148-152-031200-
EAST TEXAS

CITY           SKY/WX    TMP DP  RH WIND       PRES   REMARKS
PARIS          CLEAR     70  68  93 CALM      30.02S
CLARKSVILLE    NOT AVBL
TYLER          CLEAR     74  72  93 N3        29.98S
LONGVIEW       CLOUDY    73  70  90 N3        29.97S
PALESTINE      PTSUNNY   75  75 100 NE3       29.97S FOG
NACOGDOCHES    CLOUDY    74  73  97 N5        29.97R FOG
$$

TXZ171-183-184-186-188-203-204-031200-
TEXAS HILL COUNTRY AND EDWARDS PLATEAU

CITY           SKY/WX    TMP DP  RH WIND       PRES   REMARKS
LLANO          PTSUNNY   68  64  88 CALM      30.02S
HORSESHOE BAY  CLOUDY    74  73  95 CALM      30.02S
KERRVILLE      CLOUDY    72  69  91 CALM      30.04S
FREDERICKSBRG  CLOUDY    73  72  96 CALM      30.05S
ROCKSPRINGS    CLOUDY    72  70  94 CALM      30.13S
HONDO          MOCLDY    74  72  93 N7        29.99F
UVALDE         MOSUNNY   74  74 100 CALM      30.02F
DEL RIO        CLOUDY    80  73  79 N6        30.01R
$$

TXZ163-177-195>197-199-213-226-237-031200-
SOUTHEAST TEXAS

CITY           SKY/WX    TMP DP  RH WIND       PRES   REMARKS
COLLEGE STN    MOCLDY    77  74  90 NW3       29.96R
CALDWELL       PTSUNNY   75  74  96 N5        29.97S
CROCKETT       CLOUDY    73  73 100 CALM      29.96S FOG
BRENHAM        CLOUDY    77  76  96 CALM      29.96S
HUNTSVILLE     CLOUDY    77  74  90 CALM      29.97R
CONROE         MOCLDY    76  75  97 CALM      29.95S
HOUSTON BUSH   MOCLDY    78  75  90 CALM      29.93S
HOUSTON HOBBY  MOCLDY    82  75  79 CALM      29.92F
PERLAND        LGT RAIN  77  75  93 S3        29.95R
WHARTON        CLOUDY    77  74  90 W3        29.95S
$$

TXZ215-216-236-237-438-031200-
THE UPPER TEXAS COAST

CITY           SKY/WX    TMP DP  RH WIND       PRES   REMARKS
ORANGE         CLOUDY    77  76  95 CALM      29.95S
PORT ARTHUR    MOCLDY    76  76 100 S5        29.93S FOG
GALVESTON      CLOUDY    81  76  84 CALM      29.95S
ANGLETON       CLOUDY    76  73  91 N5        29.94R
BAY CITY       LGT RAIN  76  74  94 SW3       29.94F
$$

TXZ229-232-234-239-242-243-245-247-249-250-
253-255-257-343-347-443-031200-
TEXAS COASTAL BEND, RIO GRANDE PLAINS DEEP SOUTH TEXAS

CITY           SKY/WX    TMP DP  RH WIND       PRES   REMARKS
VICTORIA       TSTM      77  74  90 W10       29.97R FOG
BEEVILLE       CLOUDY    77  77 100 CALM      29.95S
ROCKPORT       CLOUDY    81  74  79 W5        29.93F
PORT ARANSAS   PTSUNNY   83  78  87 SW8       29.96S
PORT LAVACA    RAIN      78  74  87 CALM      29.94F
CORPUS CHRISTI MOCLDY    76  75  97 SW5       29.94F
KINGSVILLE NAS PTCLDY    77  74  90 W6        29.94F
COTULLA        MOCLDY    79  71  76 CALM      29.97F
LAREDO         CLOUDY    75  73  93 CALM      29.97F
BROWNSVILLE    CLEAR     79  76  90 SE5       29.93S
PORT ISABEL    CLEAR     80  77  90 CALM      29.95R
HEBBRONVILLE   LGT RAIN  73  71  95 CALM      29.98F
MCALLEN        CLOUDY    80  77  90 E3        29.95S
WESLACO        NOT AVBL


USA.gov is the U.S. government's official web portal to all federal, state and local government web resources and services.